Showing default

COSMOS 1603, 15333

Orbit data source: Space-Track

COSMOS 1603, 15333 is a payload satellite owned by TsNII-108 (CIS) in LEO that was launched on Fri, 28 Sep 1984 UTC via a PROTON-K/DM-2 launch vehicle from the Tyuratam Missile And Space Complex (TTMTR). Payload-class satellites include a variety of spacecraft equipped with specific instruments for various scientific and technological missions. These include communications satellites like Starlink; space stations such as the ISS; scientific satellites like the Hubble; Earth observation satellites from companies like Planet Labs, Umbra, and HawkEye 360; GPS; miniature CubeSats for education and research; and military/defense satellites.

Loading next visibility...
Identifier
15333, 1984-106A
Orbit
LEO
Country
Flag of CISCIS
Related business
Manufacturer
Yuzhnoe
Mission
Defense Sigint
Bus & Motor
TSELINA-2, Unknown motor
Mass
3,250 kg wet, 3,250 kg dry
Launch date (UTC)
1984-09-28 (41 years ago)
Launch vehicle
PROTON-K/DM-2
Launch site
Tyuratam Missile And Space Complex (TTMTR)
Object type
Payload
Rocket body
Debris
Shape & HBR
Unknown shape, 9.5 m
Radar Cross Section
Large (>1 m²)

Expand to show TLE details & history
Last TLE update: 21 hours ago

TLE from 21 hours ago
0 COSMOS 1603
1 15333U 84106A   25261.44563424  .00000239  00000-0  14927-3 0  9992
2 15333  71.0249 257.2939 0021753 293.5917  66.2921 14.14474724114315
Epoch: 2025-09-18T10:41Z
TLE epoch observation values (Epoch: 2025-09-18T10:41:42.798Z)
Latitude
-0.00002°
Longitude
99.25845°
Altitude
840.212 km
Speed
7.436 km/s
True Right ascension
17h 09m 10s
True Declination
0° 00' 00"
Sunlit
Object was in daylight at epoch
Visualization orbit readout
Latitude
Unknown
Longitude
Unknown
Altitude
Unknown
Speed
Unknown
Apparent Right ascension
Unknown
Apparent Declination
Unknown
Sunlit
N/A
Visualization observer readout
Local Sidereal Time
00:34:25
Azimuth
Unknown
Elevation
Unknown
Doppler factor
Unknown
Orbital elements
Apogee altitude
857.729 km
Perigee altitude
826.317 km
Semi-major axis
7,220.16 km
Eccentricity
0.00218
Inclination
71.0249°
RAAN
257.2939°
Arg. of periapsis
293.5917°
True anomaly
66.52058°
Mean anomaly
66.2921°
Eccentric anomaly
66.40632°
Mean motion
3.53772 °/min
Orbital period
101.76 mins
BSTAR
0.00014927
Loading maneuver chart data...
Computing Atmospheric mass density...

Documentation

Showing up to 5 results
|